[[[{"header":{"parameterUnit":"kt","parameterCategory":2,"dx":1,"dy":1,"la1":30.253999710083008,"la2":30.299108505249023,"lo1":-89.0895004272461,"lo2":-89.04439544677734,"nx":28,"ny":28,"refTime":"2022-10-19T09:00:00:Z","depth":0,"parameterNumber":1,"parameterNumberName":"U-component_of_WINDS"},"data":[-3.7246,-3.7405,-3.7405,-3.7586,-3.7616,-3.7741,-3.7786,-3.7843,-3.7888,-3.8037,-3.8123,-3.8138,-3.8184,-3.8286,-3.838,-3.8385,-3.8428,-3.8484,-3.8482,-3.8225,-3.8189,-3.8156,-3.812,-3.8492,-3.8492,-3.8751,-3.8754,-3.8756,-3.7059,-3.709,-3.7184,-3.7277,-3.7359,-3.7303,-3.7371,-3.7445,-3.7558,-3.7614,-3.7698,-3.7829,-3.7932,-3.7959,-3.8059,-3.8135,-3.8117,-3.8163,-3.8161,-3.8171,-3.7893,-3.7855,-3.8176,-3.8176,-3.8176,-3.8176,-3.8176,-3.8176,-3.6719,-3.6814,-3.6869,-3.6972,-3.7017,-3.7079,-3.717,-3.7186,-3.728,-3.7383,-3.7363,-3.7491,-3.7548,-3.7668,-3.7708,-3.7809,-3.7758,-3.7809,-3.7824,-3.7839,-3.7858,-3.7493,-3.7824,-3.7823,-3.7822,-3.7822,-3.7821,0,-3.6472,-3.6465,-3.6555,-3.6646,-3.6721,-3.6791,-3.6856,-3.6911,-3.6896,-3.6974,-3.7087,-3.7152,-3.728,-3.7388,-3.7481,-3.7512,-3.7468,-3.746,-3.7497,-3.7514,-3.7516,-3.7524,-3.7078,-3.7452,-3.7449,-3.7447,-3.7445,-3.7444,-3.6135,-3.6244,-3.63,-3.6364,-3.6398,-3.6501,-3.6563,-3.6541,-3.6608,-3.6684,-3.6769,-3.6874,-3.6959,-3.714,-3.7161,-3.7257,-3.7238,-3.7382,-3.7253,-3.7262,-3.7249,-3.7245,-3.7259,-3.741,-3.7414,-3.7418,-3.7421,0,-3.5947,-3.5944,-3.6112,-3.6157,-3.6171,-3.6287,-3.6326,-3.642,-3.6425,-3.6555,-3.6584,-3.6595,-3.6706,-3.6702,-3.6828,-3.6824,-3.702,-3.6994,-3.7001,-3.6998,-3.7132,-3.7122,-3.7553,-3.7611,-3.7217,-3.7221,-3.7224,0,-3.5662,-3.5805,-3.5794,-3.5892,-3.605,-3.6024,-3.6183,-3.6203,-3.6251,-3.6353,-3.6298,-3.6395,-3.6374,-3.6471,-3.6464,-3.6622,-3.6644,-3.6653,-3.6651,-3.6663,-3.6663,-3.6704,-3.6689,-3.6633,-3.6631,-3.6629,-3.6627,0,-3.5373,-3.5532,-3.569,-3.5727,-3.579,-3.5864,-3.5894,-3.5947,-3.6008,-3.6085,-3.6125,-3.6216,-3.6269,-3.6341,-3.6333,-3.6246,-3.6523,-3.6402,-3.6533,-3.6534,-3.6601,-3.6598,-3.6974,-3.6624,-3.6624,-3.6623,-3.6622,0,-3.5145,-3.5223,-3.545,-3.5501,-3.5545,-3.5648,-3.5737,-3.5824,-3.5884,-3.5886,-3.5947,-3.5912,-3.6045,-3.5926,-3.6112,-3.6002,-3.6057,-3.6075,-3.6084,-3.6103,-3.5972,-3.6193,-3.6544,-3.6585,-3.6111,-3.6107,-3.6103,0,-3.4819,-3.5046,-3.5026,-3.5242,-3.5348,-3.5281,-3.5394,-3.5448,-3.5461,-3.5553,-3.5565,-3.5671,-3.558,-3.5614,-3.5705,-3.5725,-3.5867,-3.5704,-3.5845,-3.585,-3.5838,-3.6159,-3.6217,-3.6466,-3.6048,-3.6054,-3.6058,0,-3.4567,-3.464,-3.468,-3.4722,-3.4788,-3.4875,-3.5005,-3.5103,-3.5166,-3.5231,-3.5343,-3.5486,-3.5427,-3.5481,-3.5463,-3.5558,-3.577,-3.5481,-3.5483,-3.5539,-3.6018,-3.6072,-3.6114,-3.5736,-3.5743,-3.5748,-3.6014,0,-3.4234,-3.4346,-3.4452,-3.4544,-3.4609,-3.4742,-3.4739,-3.4808,-3.4783,-3.4794,-3.4954,-3.4998,-3.51,-3.5143,-3.512,-3.5338,-3.5303,-3.5237,-3.5127,-3.5335,-3.5424,-3.5459,-3.4996,-3.4992,-3.499,-3.4987,0,0,-3.3927,-3.4087,-3.4061,-3.4186,-3.4241,-3.417,-3.4314,-3.4358,-3.4451,-3.4492,-3.4428,-3.4641,-3.468,-3.4877,-3.4941,-3.498,-3.5021,-3.4948,-3.5234,-3.5262,-3.5288,-3.5382,-3.5419,-3.4982,-3.4981,-3.498,-3.4979,0,-3.3806,-3.3843,-3.3983,-3.4028,-3.4094,-3.4097,-3.413,-3.4184,-3.4198,-3.4353,-3.4296,-3.4391,-3.456,-3.4611,-3.4659,-3.4921,-3.4876,-3.4951,-3.5096,-3.5206,-3.5238,-3.5265,-3.5364,-3.5399,-3.4973,-3.4973,-3.4973,0,-3.3562,-3.36,-3.3666,-3.3784,-3.3826,-3.3935,-3.3817,-3.3936,-3.4017,-3.3937,-3.4093,-3.4118,-3.4184,-3.4368,-3.445,-3.4396,-3.4745,-3.4632,-3.465,-3.4661,-3.4768,-3.4805,-3.4838,-3.44,-3.4398,-3.4396,0,0,-3.3459,-3.3561,-3.3596,-3.3758,-3.3788,-3.3795,-3.3852,-3.3834,-3.3894,-3.3918,-3.3949,-3.4011,-3.4109,-3.4175,-3.4267,-3.4468,-3.4483,-3.4562,-3.4589,-3.4611,-3.4634,-3.4747,-3.4784,-3.4389,-3.4389,-3.4388,0,0,-3.341,-3.3457,-3.3421,-3.3607,-3.3665,-3.3712,-3.3812,-3.377,-3.3852,-3.3837,-3.3814,-3.3829,-3.4,-3.4027,-3.3927,-3.4229,-3.4119,-3.4142,-3.4206,-3.424,-3.4267,-3.426,-3.3816,0,0,0,0,0,-3.3286,-3.345,-3.3417,-3.3448,-3.3597,-3.373,-3.3749,-3.3733,-3.3655,-3.3735,-3.3754,-3.3699,-3.3969,-3.388,-3.3911,-3.4025,-3.4292,-3.431,-3.4326,-3.4455,-3.4491,-3.4521,0,0,0,0,0,0,-3.3298,-3.3335,-3.3413,-3.3467,-3.35,-3.3724,-3.359,-3.359,-3.3646,-3.3634,-3.3697,-3.3701,-3.3691,-3.3862,-3.3891,-3.4,-3.3806,-3.4299,-3.4314,-3.4327,-3.4467,-3.4497,-3.4522,0,0,0,0,0,-3.3307,-3.3337,-3.3581,-3.3464,-3.3493,-3.3511,-3.3583,-3.3582,-3.3626,-3.3657,-3.3659,-3.3609,-3.3694,-3.3718,-3.3879,-3.3987,-3.3786,-3.3797,-3.4309,-3.432,-3.433,-3.4482,0,0,0,0,0,0,-3.3314,-3.3338,-3.3586,-3.3594,-3.3401,-3.3498,-3.3512,-3.3576,-3.3645,-3.3649,-3.3566,-3.3556,-3.3699,-3.3716,-3.3734,-3.3984,-3.3769,-3.3781,-3.3787,-3.4317,-3.4326,-3.4334,0,0,0,0,0,0,-3.3321,-3.3345,-3.359,-3.3511,-3.351,-3.3486,-3.3499,-3.3634,-3.3647,-3.3551,-3.3544,-3.3561,-3.3672,-3.3716,-3.373,-3.394,-3.3757,-3.3767,-3.3775,-3.3779,-3.4325,-3.4332,0,0,0,0,0,0,-3.3331,-3.3352,-3.3509,-3.3508,-3.3507,-3.3599,-3.3605,-3.376,-3.3577,-3.3549,-3.3561,-3.3553,-3.3674,-3.3687,-3.3727,-3.3932,-3.3938,-3.3757,-3.3764,-3.377,-3.3773,0,0,0,0,0,0,0,-3.3339,-3.3205,-3.3537,-3.3506,-3.3504,-3.3671,-3.3673,-3.3676,-3.3576,-3.3569,-3.3562,-3.3556,-3.3697,-3.3708,-3.372,-3.3926,0,0,-3.3756,-3.3761,0,0,0,0,0,0,0,0,-3.3196,-3.3203,-3.3537,-3.3539,-3.354,-3.3672,-3.3673,-3.3675,-3.3574,-3.3569,-3.3564,-3.3559,-3.37,-3.3709,-3.3719,0,0,0,0,0,0,0,0,0,0,0,0,0,0,0,-3.3537,-3.3539,0,-3.3672,-3.3673,-3.3675,-3.3574,-3.3569,-3.3565,-3.3561,-3.3703,-3.371,-3.3718,0,0,0,0,0,0,0,0,0,0,0,0,0,0,0,0,0,0,0,0,0,0,0,0,0,0,0,0,0,0,0,0,0,0,0,0,0,0,0,0,0,0,0,0,0,0,0,0,0,0,0,0,0,0,0,0,0,0,0,0,0,0,0,0,0,0,0,0,0]}],[{"header":{"parameterUnit":"kt","parameterCategory":2,"dx":1,"dy":1,"la1":30.253999710083008,"la2":30.299108505249023,"lo1":-89.0895004272461,"lo2":-89.04439544677734,"nx":28,"ny":28,"refTime":"2022-10-19T09:00:00:Z","depth":0,"parameterNumber":2,"parameterNumberName":"V-component_of_WINDS"},"data":[-10.8087,-10.8258,-10.8255,-10.8448,-10.8477,-10.8607,-10.8652,-10.8708,-10.8752,-10.8903,-10.8989,-10.8999,-10.9038,-10.9136,-10.9226,-10.9228,-10.9267,-10.9332,-10.9323,-10.904,-10.9,-10.8962,-10.8923,-10.934,-10.9341,-10.9618,-10.962,-10.9622,-10.7882,-10.7914,-10.8015,-10.811,-10.8195,-10.8131,-10.8199,-10.8275,-10.8392,-10.8445,-10.8529,-10.8661,-10.8762,-10.8778,-10.8874,-10.8951,-10.8925,-10.8977,-10.8972,-10.8979,-10.8676,-10.8635,-10.8997,-10.8997,-10.8997,-10.8997,-10.8997,-10.8997,-10.7509,-10.7612,-10.7667,-10.7776,-10.7822,-10.7884,-10.798,-10.7991,-10.8087,-10.819,-10.8162,-10.8292,-10.8342,-10.8453,-10.8487,-10.8587,-10.8527,-10.8581,-10.8596,-10.861,-10.8629,-10.8234,-10.8602,-10.8601,-10.86,-10.8599,-10.8598,0,-10.7235,-10.7225,-10.7321,-10.7416,-10.7494,-10.7566,-10.7631,-10.7689,-10.766,-10.774,-10.7855,-10.7919,-10.8045,-10.815,-10.8237,-10.826,-10.8199,-10.819,-10.8228,-10.8246,-10.8251,-10.8253,-10.7761,-10.818,-10.8176,-10.8174,-10.8172,-10.817,-10.686,-10.6979,-10.7033,-10.7101,-10.7135,-10.7244,-10.7307,-10.7273,-10.7341,-10.7412,-10.7502,-10.7607,-10.769,-10.787,-10.7877,-10.7969,-10.794,-10.8101,-10.7953,-10.7965,-10.7945,-10.7939,-10.7951,-10.8132,-10.8136,-10.814,-10.8144,0,-10.665,-10.6641,-10.6823,-10.6863,-10.6877,-10.7002,-10.7035,-10.7133,-10.7131,-10.7267,-10.7296,-10.7292,-10.7403,-10.7383,-10.7504,-10.749,-10.7695,-10.7662,-10.7678,-10.7671,-10.7815,-10.7803,-10.8282,-10.8344,-10.7909,-10.7913,-10.7916,0,-10.6327,-10.6484,-10.6461,-10.6567,-10.674,-10.6701,-10.6872,-10.6887,-10.693,-10.7035,-10.6963,-10.7063,-10.7021,-10.7118,-10.7098,-10.726,-10.7282,-10.7282,-10.7275,-10.729,-10.7291,-10.7325,-10.7306,-10.7251,-10.7249,-10.7247,-10.7245,0,-10.6,-10.617,-10.6342,-10.6379,-10.6435,-10.6516,-10.6543,-10.6589,-10.665,-10.6725,-10.6764,-10.6854,-10.6903,-10.6972,-10.6946,-10.6846,-10.7143,-10.7001,-10.7143,-10.7144,-10.7211,-10.7207,-10.7635,-10.7242,-10.7241,-10.724,-10.7239,0,-10.5738,-10.5818,-10.6068,-10.6114,-10.6159,-10.6271,-10.6358,-10.6449,-10.6503,-10.6498,-10.6556,-10.6505,-10.6644,-10.6505,-10.6696,-10.6574,-10.6627,-10.6638,-10.6648,-10.666,-10.6505,-10.6752,-10.716,-10.7203,-10.667,-10.6665,-10.6661,0,-10.5368,-10.5617,-10.5586,-10.5822,-10.5935,-10.5847,-10.597,-10.6019,-10.6023,-10.6116,-10.6118,-10.6224,-10.6116,-10.6146,-10.6243,-10.6249,-10.6407,-10.6227,-10.6361,-10.6366,-10.6352,-10.6727,-10.6795,-10.7073,-10.66,-10.6606,-10.6611,0,-10.5079,-10.5148,-10.5192,-10.5233,-10.5293,-10.5386,-10.5526,-10.5624,-10.5688,-10.575,-10.5867,-10.6014,-10.5939,-10.5989,-10.5955,-10.6058,-10.6299,-10.5962,-10.5963,-10.6025,-10.6566,-10.663,-10.6677,-10.6253,-10.626,-10.6266,-10.6563,0,-10.4689,-10.4811,-10.493,-10.5021,-10.5088,-10.5234,-10.5215,-10.5289,-10.5251,-10.5251,-10.542,-10.5453,-10.5549,-10.5595,-10.5558,-10.5798,-10.5755,-10.5673,-10.5536,-10.5781,-10.5879,-10.5918,-10.5393,-10.5389,-10.5385,-10.5383,0,0,-10.4338,-10.4512,-10.4472,-10.4608,-10.4664,-10.4569,-10.4727,-10.4769,-10.4855,-10.4894,-10.4818,-10.503,-10.506,-10.5268,-10.5342,-10.538,-10.5421,-10.5336,-10.5664,-10.5696,-10.5725,-10.5829,-10.5871,-10.5376,-10.5375,-10.5374,-10.5373,0,-10.4192,-10.4228,-10.4386,-10.4428,-10.4489,-10.4481,-10.4519,-10.4561,-10.4568,-10.4733,-10.4651,-10.4749,-10.4919,-10.4962,-10.5006,-10.531,-10.5242,-10.534,-10.5513,-10.563,-10.5666,-10.5698,-10.5808,-10.5848,-10.5364,-10.5365,-10.5365,0,-10.3906,-10.3939,-10.4012,-10.4133,-10.4171,-10.4287,-10.414,-10.4267,-10.4352,-10.4239,-10.4404,-10.4419,-10.4474,-10.4672,-10.476,-10.4692,-10.5081,-10.4953,-10.4974,-10.4983,-10.5095,-10.5139,-10.5178,-10.4667,-10.4665,-10.4663,0,0,-10.3782,-10.3894,-10.3917,-10.41,-10.413,-10.412,-10.4178,-10.4147,-10.4199,-10.4221,-10.4238,-10.4291,-10.4388,-10.4454,-10.4544,-10.4764,-10.4772,-10.4868,-10.4901,-10.4928,-10.4952,-10.5071,-10.5114,-10.4654,-10.4654,-10.4653,0,0,-10.3722,-10.3757,-10.371,-10.3919,-10.3974,-10.4006,-10.4117,-10.406,-10.4139,-10.412,-10.4069,-10.4081,-10.4265,-10.4282,-10.4168,-10.4495,-10.436,-10.4387,-10.4477,-10.4518,-10.4551,-10.4543,-10.4019,0,0,0,0,0,-10.3563,-10.3752,-10.371,-10.3742,-10.3892,-10.403,-10.4049,-10.4013,-10.3919,-10.4008,-10.4014,-10.3936,-10.4211,-10.4108,-10.4139,-10.4268,-10.4541,-10.4561,-10.458,-10.4748,-10.4792,-10.4828,0,0,0,0,0,0,-10.3575,-10.3614,-10.3704,-10.3746,-10.3779,-10.4023,-10.3856,-10.3851,-10.3909,-10.3892,-10.3938,-10.3938,-10.3908,-10.4089,-10.4118,-10.4241,-10.401,-10.4549,-10.4566,-10.4581,-10.4763,-10.4799,-10.4829,0,0,0,0,0,-10.3584,-10.3616,-10.3867,-10.3743,-10.3772,-10.377,-10.3849,-10.3843,-10.3887,-10.3895,-10.3893,-10.3855,-10.3913,-10.3934,-10.4106,-10.4229,-10.3989,-10.4,-10.456,-10.4573,-10.4585,-10.478,0,0,0,0,0,0,-10.3592,-10.3612,-10.3871,-10.3879,-10.3668,-10.3755,-10.3768,-10.3837,-10.3885,-10.3885,-10.3809,-10.3795,-10.3918,-10.3934,-10.3951,-10.4227,-10.3973,-10.3984,-10.3991,-10.457,-10.458,-10.459,0,0,0,0,0,0,-10.3594,-10.3619,-10.3875,-10.3783,-10.378,-10.3742,-10.3753,-10.3893,-10.3887,-10.3796,-10.3786,-10.3802,-10.3891,-10.3935,-10.3947,-10.4167,-10.396,-10.3971,-10.3978,-10.3983,-10.4578,-10.4587,0,0,0,0,0,0,-10.3604,-10.3625,-10.3781,-10.3779,-10.3775,-10.3855,-10.3864,-10.4019,-10.3812,-10.3795,-10.3792,-10.3782,-10.3895,-10.3906,-10.3946,-10.416,-10.4165,-10.3961,-10.3968,-10.3973,-10.3976,0,0,0,0,0,0,0,-10.3611,-10.348,-10.3828,-10.3775,-10.3771,-10.3947,-10.3949,-10.3951,-10.381,-10.3802,-10.3794,-10.3786,-10.39,-10.3911,-10.3923,-10.4155,0,0,-10.396,-10.3965,0,0,0,0,0,0,0,0,-10.3471,-10.3478,-10.3828,-10.383,-10.3831,-10.3947,-10.3949,-10.395,-10.3808,-10.3802,-10.3795,-10.3789,-10.3903,-10.3912,-10.3922,0,0,0,0,0,0,0,0,0,0,0,0,0,0,0,-10.3829,-10.383,0,-10.3947,-10.3949,-10.395,-10.3807,-10.3802,-10.3797,-10.3792,-10.3906,-10.3913,-10.3921,0,0,0,0,0,0,0,0,0,0,0,0,0,0,0,0,0,0,0,0,0,0,0,0,0,0,0,0,0,0,0,0,0,0,0,0,0,0,0,0,0,0,0,0,0,0,0,0,0,0,0,0,0,0,0,0,0,0,0,0,0,0,0,0,0,0,0,0,0]}]]]